Time,TemperatureF,DewpointF,PressureIn,WindDirection,WindDirectionDegrees,WindSpeedMPH,WindSpeedGustMPH,Humidity,HourlyPrecipIn,Conditions,Clouds,dailyrainin,SolarRadiationWatts/m^2,SoftwareType,DateUTC
2013-03-29 00:02:00,52.3,50.7,30.09,East,88,0.0,3.0,94,0.00,,,0.00,0.0,meteohub,2013-03-29 10:02:00,
2013-03-29 00:04:00,52.3,50.7,30.08,East,88,0.0,3.0,94,0.00,,,0.00,0.0,meteohub,2013-03-29 10:04:00,
2013-03-29 00:12:00,52.0,50.0,30.09,ESE,109,2.0,2.0,93,0.00,,,0.00,0.0,meteohub,2013-03-29 10:12:00,
2013-03-29 00:17:00,52.0,50.4,30.08,East,90,2.0,3.0,94,0.00,,,0.00,0.0,meteohub,2013-03-29 10:17:00,
2013-03-29 00:22:00,52.0,50.4,30.08,East,90,2.0,3.0,94,0.00,,,0.00,0.0,meteohub,2013-03-29 10:22:00,
2013-03-29 00:32:00,52.0,50.4,30.07,East,84,2.0,5.0,94,0.00,,,0.00,0.0,meteohub,2013-03-29 10:32:00,
2013-03-29 00:37:00,52.0,50.0,30.08,East,88,3.0,5.0,93,0.00,,,0.00,0.0,meteohub,2013-03-29 10:37:00,
2013-03-29 00:42:00,51.8,49.8,30.07,East,89,3.0,3.0,93,0.00,,,0.00,0.0,meteohub,2013-03-29 10:42:00,
2013-03-29 00:44:00,51.6,49.6,30.08,East,89,1.0,3.0,93,0.00,,,0.00,0.0,meteohub,2013-03-29 10:44:00,
2013-03-29 00:52:00,51.6,49.6,30.07,East,89,2.0,3.0,93,0.00,,,0.00,0.0,meteohub,2013-03-29 10:52:00,
2013-03-29 00:57:00,51.4,49.5,30.07,East,100,2.0,3.0,93,0.00,,,0.00,0.0,meteohub,2013-03-29 10:57:00,
2013-03-29 01:02:00,51.4,49.3,30.07,East,96,2.0,5.0,92,0.00,,,0.00,0.0,meteohub,2013-03-29 11:02:00,
2013-03-29 01:07:00,51.4,49.5,30.07,East,91,3.0,5.0,93,0.00,,,0.00,0.0,meteohub,2013-03-29 11:07:00,
2013-03-29 01:09:00,51.6,49.5,30.07,East,82,3.0,5.0,92,0.00,,,0.00,0.0,meteohub,2013-03-29 11:09:00,
2013-03-29 01:12:00,52.0,49.6,30.07,East,80,2.0,5.0,92,0.00,,,0.00,0.0,meteohub,2013-03-29 11:12:00,
2013-03-29 01:22:00,51.6,49.1,30.07,ENE,76,1.0,5.0,91,0.00,,,0.00,0.0,meteohub,2013-03-29 11:22:00,
2013-03-29 01:27:00,51.4,49.3,30.07,East,90,2.0,5.0,92,0.00,,,0.00,0.0,meteohub,2013-03-29 11:27:00,
2013-03-29 01:32:00,51.3,49.1,30.07,East,90,2.0,5.0,92,0.00,,,0.00,0.0,meteohub,2013-03-29 11:32:00,
2013-03-29 01:37:00,51.4,49.5,30.06,East,86,2.0,5.0,93,0.00,,,0.00,0.0,meteohub,2013-03-29 11:37:00,
2013-03-29 01:42:00,51.4,49.3,30.06,East,95,2.0,5.0,92,0.00,,,0.00,0.0,meteohub,2013-03-29 11:42:00,
2013-03-29 01:47:00,51.3,49.3,30.06,ENE,73,3.0,5.0,93,0.00,,,0.00,0.0,meteohub,2013-03-29 11:47:00,
2013-03-29 01:50:00,51.6,49.6,30.06,East,80,1.0,5.0,93,0.00,,,0.00,0.0,meteohub,2013-03-29 11:50:00,
2013-03-29 01:57:00,51.8,49.6,30.06,East,85,3.0,5.0,92,0.00,,,0.00,0.0,meteohub,2013-03-29 11:57:00,
2013-03-29 02:02:00,51.8,49.6,30.06,ENE,75,1.0,5.0,92,0.00,,,0.00,0.0,meteohub,2013-03-29 12:02:00,
2013-03-29 02:07:00,51.6,49.5,30.05,ENE,77,4.0,5.0,92,0.00,,,0.00,0.0,meteohub,2013-03-29 12:07:00,
2013-03-29 02:12:00,51.8,49.3,30.05,East,98,3.0,7.0,91,0.00,,,0.00,0.0,meteohub,2013-03-29 12:12:00,
2013-03-29 02:16:00,51.6,49.1,30.05,ESE,117,3.0,7.0,91,0.00,,,0.00,0.0,meteohub,2013-03-29 12:16:00,
2013-03-29 02:22:00,51.4,48.9,30.05,East,80,2.0,7.0,91,0.00,,,0.00,0.0,meteohub,2013-03-29 12:22:00,
2013-03-29 02:27:00,51.3,48.7,30.05,East,80,2.0,6.0,91,0.00,,,0.00,0.0,meteohub,2013-03-29 12:27:00,
2013-03-29 02:32:00,51.3,48.7,30.05,East,93,2.0,5.0,91,0.00,,,0.00,0.0,meteohub,2013-03-29 12:32:00,
2013-03-29 02:37:00,51.3,48.4,30.05,East,87,3.0,5.0,90,0.00,,,0.00,0.0,meteohub,2013-03-29 12:37:00,
2013-03-29 02:39:00,51.3,48.7,30.05,East,79,2.0,5.0,91,0.00,,,0.00,0.0,meteohub,2013-03-29 12:39:00,
2013-03-29 02:47:00,51.6,48.2,30.04,ENE,77,3.0,5.0,88,0.00,,,0.00,0.0,meteohub,2013-03-29 12:47:00,
2013-03-29 02:52:00,51.8,48.0,30.04,ENE,73,3.0,7.0,87,0.00,,,0.00,0.0,meteohub,2013-03-29 12:52:00,
2013-03-29 02:56:00,51.6,47.8,30.05,East,92,2.0,7.0,87,0.00,,,0.00,0.0,meteohub,2013-03-29 12:56:00,
2013-03-29 02:57:00,51.6,47.8,30.05,East,84,3.0,7.0,87,0.00,,,0.00,0.0,meteohub,2013-03-29 12:57:00,
2013-03-29 03:07:00,51.4,48.0,30.04,East,84,2.0,6.0,88,0.00,,,0.00,0.0,meteohub,2013-03-29 13:07:00,
2013-03-29 03:12:00,51.1,47.7,30.04,East,83,1.0,6.0,88,0.00,,,0.00,0.0,meteohub,2013-03-29 13:12:00,
2013-03-29 03:17:00,50.7,47.7,30.05,East,84,2.0,6.0,89,0.00,,,0.00,0.0,meteohub,2013-03-29 13:17:00,
2013-03-29 03:20:00,50.7,47.7,30.05,East,83,3.0,6.0,89,0.00,,,0.00,0.0,meteohub,2013-03-29 13:20:00,
2013-03-29 03:22:00,50.7,47.7,30.04,ENE,69,4.0,5.0,89,0.00,,,0.00,0.0,meteohub,2013-03-29 13:22:00,
2013-03-29 03:32:00,50.7,47.7,30.04,East,98,1.0,5.0,89,0.00,,,0.00,0.0,meteohub,2013-03-29 13:32:00,
2013-03-29 03:37:00,50.5,47.5,30.04,East,92,3.0,5.0,89,0.00,,,0.00,0.0,meteohub,2013-03-29 13:37:00,
2013-03-29 03:39:00,50.5,47.5,30.04,ENE,71,4.0,5.0,89,0.00,,,0.00,0.0,meteohub,2013-03-29 13:39:00,
2013-03-29 03:42:00,50.7,47.7,30.04,East,83,1.0,5.0,89,0.00,,,0.00,0.0,meteohub,2013-03-29 13:42:00,
2013-03-29 03:52:00,51.3,47.8,30.04,ENE,67,3.0,7.0,88,0.00,,,0.00,0.0,meteohub,2013-03-29 13:52:00,
2013-03-29 03:57:00,50.9,47.5,30.04,East,85,0.0,7.0,88,0.00,,,0.00,0.0,meteohub,2013-03-29 13:57:00,
2013-03-29 04:02:00,50.4,47.3,30.04,ENE,72,4.0,7.0,89,0.00,,,0.00,0.0,meteohub,2013-03-29 14:02:00,
2013-03-29 04:06:00,50.5,47.5,30.04,ENE,76,3.0,6.0,89,0.00,,,0.00,0.0,meteohub,2013-03-29 14:06:00,
2013-03-29 04:12:00,50.4,47.3,30.04,East,86,3.0,6.0,89,0.00,,,0.00,0.0,meteohub,2013-03-29 14:12:00,
2013-03-29 04:17:00,50.4,47.5,30.04,East,80,3.0,6.0,90,0.00,,,0.00,0.0,meteohub,2013-03-29 14:17:00,
2013-03-29 04:22:00,50.4,47.3,30.04,East,91,3.0,6.0,89,0.00,,,0.00,0.0,meteohub,2013-03-29 14:22:00,
2013-03-29 04:24:00,50.4,47.3,30.04,East,90,3.0,6.0,89,0.00,,,0.00,0.0,meteohub,2013-03-29 14:24:00,
2013-03-29 04:27:00,50.4,47.3,30.04,ESE,106,3.0,6.0,89,0.00,,,0.00,0.0,meteohub,2013-03-29 14:27:00,
2013-03-29 04:39:00,50.2,46.8,30.04,ENE,72,4.0,6.0,88,0.00,,,0.00,0.0,meteohub,2013-03-29 14:39:00,
2013-03-29 04:44:00,50.5,46.8,30.04,East,100,2.0,5.0,87,0.00,,,0.00,0.0,meteohub,2013-03-29 14:44:00,
2013-03-29 04:47:00,50.5,46.8,30.04,ENE,77,3.0,7.0,87,0.00,,,0.00,0.0,meteohub,2013-03-29 14:47:00,
2013-03-29 04:52:00,50.4,46.4,30.04,ENE,68,4.0,7.0,86,0.00,,,0.00,0.0,meteohub,2013-03-29 14:52:00,
2013-03-29 04:57:00,50.5,46.2,30.04,ENE,70,4.0,7.0,85,0.00,,,0.00,0.0,meteohub,2013-03-29 14:57:00,
2013-03-29 05:02:00,50.7,46.4,30.04,East,92,2.0,7.0,85,0.00,,,0.00,0.0,meteohub,2013-03-29 15:02:00,
2013-03-29 05:07:00,50.5,46.6,30.05,ESE,103,1.0,7.0,86,0.00,,,0.00,0.0,meteohub,2013-03-29 15:07:00,
2013-03-29 05:08:00,50.4,46.4,30.05,ENE,70,2.0,7.0,86,0.00,,,0.00,0.0,meteohub,2013-03-29 15:08:00,
2013-03-29 05:22:00,50.5,46.2,30.04,East,86,1.0,6.0,85,0.00,,,0.00,0.0,meteohub,2013-03-29 15:22:00,
2013-03-29 05:27:00,50.4,46.0,30.04,East,82,1.0,6.0,85,0.00,,,0.00,0.0,meteohub,2013-03-29 15:27:00,
2013-03-29 05:30:00,49.8,45.9,30.05,ENE,78,2.0,6.0,86,0.00,,,0.00,0.0,meteohub,2013-03-29 15:30:00,
2013-03-29 05:37:00,49.3,45.9,30.05,ENE,78,1.0,4.0,88,0.00,,,0.00,0.0,meteohub,2013-03-29 15:37:00,
2013-03-29 05:45:00,49.3,46.2,30.06,East,80,1.0,3.0,89,0.00,,,0.00,0.0,meteohub,2013-03-29 15:45:00,
2013-03-29 05:50:00,49.3,45.9,30.06,East,94,1.0,4.0,88,0.00,,,0.00,0.0,meteohub,2013-03-29 15:50:00,
2013-03-29 05:57:00,49.6,46.2,30.06,East,87,2.0,6.0,88,0.00,,,0.00,0.0,meteohub,2013-03-29 15:57:00,
2013-03-29 06:02:00,50.4,46.4,30.06,East,94,5.0,8.0,86,0.00,,,0.00,0.0,meteohub,2013-03-29 16:02:00,
2013-03-29 06:07:00,50.2,46.2,30.06,ENE,61,2.0,8.0,86,0.00,,,0.00,0.0,meteohub,2013-03-29 16:07:00,
2013-03-29 06:12:00,49.6,45.9,30.06,ENE,78,2.0,8.0,87,0.00,,,0.00,0.0,meteohub,2013-03-29 16:12:00,
2013-03-29 06:17:00,49.6,45.9,30.06,East,88,1.0,5.0,87,0.00,,,0.00,0.0,meteohub,2013-03-29 16:17:00,
2013-03-29 06:22:00,49.8,46.0,30.06,East,93,2.0,5.0,87,0.00,,,0.00,0.0,meteohub,2013-03-29 16:22:00,
2013-03-29 06:27:00,49.5,46.0,30.07,East,92,2.0,5.0,88,0.00,,,0.00,5.0,meteohub,2013-03-29 16:27:00,
2013-03-29 06:32:00,49.5,46.4,30.07,ENE,71,3.0,3.0,89,0.00,,,0.00,9.0,meteohub,2013-03-29 16:32:00,
2013-03-29 06:37:00,50.4,46.9,30.07,ENE,71,4.0,5.0,88,0.00,,,0.00,11.0,meteohub,2013-03-29 16:37:00,
2013-03-29 06:42:00,50.9,46.9,30.07,East,99,3.0,6.0,86,0.00,,,0.00,12.0,meteohub,2013-03-29 16:42:00,
2013-03-29 06:52:00,51.1,46.8,30.08,East,82,5.0,6.0,85,0.00,,,0.00,16.0,meteohub,2013-03-29 16:52:00,
2013-03-29 06:57:00,50.9,46.9,30.08,ENE,71,5.0,6.0,86,0.00,,,0.00,18.0,meteohub,2013-03-29 16:57:00,
2013-03-29 06:58:00,50.9,46.9,30.08,East,92,2.0,6.0,86,0.00,,,0.00,18.0,meteohub,2013-03-29 16:58:00,
2013-03-29 07:02:00,50.7,46.9,30.08,ESE,119,2.0,6.0,87,0.00,,,0.00,19.0,meteohub,2013-03-29 17:02:00,
2013-03-29 07:13:00,50.4,46.9,30.08,ESE,111,2.0,5.0,88,0.00,,,0.00,23.0,meteohub,2013-03-29 17:13:00,
2013-03-29 07:18:00,50.5,47.1,30.08,East,81,2.0,5.0,88,0.00,,,0.00,25.0,meteohub,2013-03-29 17:18:00,
2013-03-29 07:20:00,50.7,47.3,30.09,East,89,2.0,5.0,88,0.00,,,0.00,25.0,meteohub,2013-03-29 17:20:00,
2013-03-29 07:27:00,50.7,47.3,30.09,ESE,115,3.0,5.0,88,0.00,,,0.00,25.0,meteohub,2013-03-29 17:27:00,
2013-03-29 07:32:00,50.9,47.5,30.09,East,89,2.0,5.0,88,0.00,,,0.00,25.0,meteohub,2013-03-29 17:32:00,
2013-03-29 07:37:00,51.4,48.0,30.09,ENE,78,2.0,5.0,88,0.00,,,0.00,28.0,meteohub,2013-03-29 17:37:00,
2013-03-29 07:39:00,51.6,48.2,30.09,ENE,75,3.0,5.0,88,0.00,,,0.00,28.0,meteohub,2013-03-29 17:39:00,
2013-03-29 07:42:00,51.8,48.4,30.09,East,80,1.0,5.0,88,0.00,,,0.00,28.0,meteohub,2013-03-29 17:42:00,
2013-03-29 07:54:00,52.9,49.5,30.09,East,89,1.0,5.0,88,0.00,,,0.00,30.0,meteohub,2013-03-29 17:54:00,
2013-03-29 07:59:00,53.2,50.0,30.10,East,101,1.0,3.0,89,0.00,,,0.00,30.0,meteohub,2013-03-29 17:59:00,
2013-03-29 08:01:00,53.6,50.4,30.10,East,101,0.0,3.0,89,0.00,,,0.00,30.0,meteohub,2013-03-29 18:01:00,
2013-03-29 08:07:00,54.1,51.3,30.10,East,101,0.0,3.0,90,0.00,,,0.00,30.0,meteohub,2013-03-29 18:07:00,
2013-03-29 08:12:00,54.7,51.4,30.09,East,101,0.0,3.0,89,0.00,,,0.00,30.0,meteohub,2013-03-29 18:12:00,
2013-03-29 08:17:00,54.7,51.4,30.10,East,101,0.0,2.0,89,0.00,,,0.00,32.0,meteohub,2013-03-29 18:17:00,
2013-03-29 08:22:00,55.2,52.3,30.09,East,101,0.0,1.0,90,0.00,,,0.00,32.0,meteohub,2013-03-29 18:22:00,
2013-03-29 08:27:00,56.1,52.9,30.10,East,100,0.0,1.0,89,0.00,,,0.00,33.0,meteohub,2013-03-29 18:27:00,
2013-03-29 08:28:00,56.7,53.4,30.10,East,101,0.0,1.0,89,0.00,,,0.00,33.0,meteohub,2013-03-29 18:28:00,
2013-03-29 08:32:00,57.6,53.8,30.09,East,100,0.0,1.0,87,0.00,,,0.00,33.0,meteohub,2013-03-29 18:32:00,
2013-03-29 08:37:00,59.2,54.0,30.10,East,101,0.0,1.0,83,0.00,,,0.00,33.0,meteohub,2013-03-29 18:37:00,
2013-03-29 08:42:00,60.4,55.2,30.10,ESE,104,0.0,1.0,83,0.00,,,0.00,35.0,meteohub,2013-03-29 18:42:00,
2013-03-29 08:47:00,61.5,55.9,30.10,West,275,1.0,4.0,82,0.00,,,0.00,35.0,meteohub,2013-03-29 18:47:00,
2013-03-29 08:52:00,61.2,55.2,30.10,West,275,1.0,4.0,81,0.00,,,0.00,35.0,meteohub,2013-03-29 18:52:00,
2013-03-29 08:57:00,62.2,55.6,30.10,NW,315,2.0,4.0,79,0.00,,,0.00,37.0,meteohub,2013-03-29 18:57:00,
2013-03-29 09:02:00,63.0,56.7,30.11,WNW,284,2.0,5.0,80,0.00,,,0.00,58.0,meteohub,2013-03-29 19:02:00,
2013-03-29 09:07:00,63.3,57.0,30.10,WNW,297,2.0,5.0,80,0.00,,,0.00,100.0,meteohub,2013-03-29 19:07:00,
2013-03-29 09:08:00,63.3,57.0,30.10,West,259,1.0,5.0,80,0.00,,,0.00,111.0,meteohub,2013-03-29 19:08:00,
2013-03-29 09:17:00,63.0,57.0,30.10,WNW,288,1.0,5.0,81,0.00,,,0.00,253.0,meteohub,2013-03-29 19:17:00,
2013-03-29 09:23:00,63.3,57.0,30.10,NNW,328,0.0,5.0,80,0.00,,,0.00,404.0,meteohub,2013-03-29 19:23:00,
2013-03-29 09:28:00,63.7,57.7,30.10,WSW,241,0.0,5.0,81,0.00,,,0.00,494.0,meteohub,2013-03-29 19:28:00,
2013-03-29 09:33:00,63.9,57.6,30.10,WSW,257,1.0,4.0,80,0.00,,,0.00,561.0,meteohub,2013-03-29 19:33:00,
2013-03-29 09:38:00,63.9,58.3,30.09,WNW,283,1.0,4.0,82,0.00,,,0.00,663.0,meteohub,2013-03-29 19:38:00,
2013-03-29 09:39:00,63.9,57.9,30.10,NNW,329,2.0,4.0,81,0.00,,,0.00,689.0,meteohub,2013-03-29 19:39:00,
2013-03-29 09:47:00,64.4,58.5,30.09,WSW,254,0.0,7.0,81,0.00,,,0.00,251.0,meteohub,2013-03-29 19:47:00,
2013-03-29 09:52:00,64.9,58.6,30.10,NW,315,0.0,7.0,80,0.00,,,0.00,803.0,meteohub,2013-03-29 19:52:00,
2013-03-29 09:57:00,65.1,58.8,30.09,West,277,3.0,5.0,80,0.00,,,0.00,262.0,meteohub,2013-03-29 19:57:00,
2013-03-29 09:58:00,64.9,59.0,30.09,WSW,244,2.0,5.0,81,0.00,,,0.00,306.0,meteohub,2013-03-29 19:58:00,
2013-03-29 10:02:00,64.6,58.6,30.09,WSW,254,2.0,5.0,81,0.00,,,0.00,206.0,meteohub,2013-03-29 20:02:00,
2013-03-29 10:07:00,64.0,58.8,30.09,SW,221,2.0,5.0,83,0.00,,,0.00,264.0,meteohub,2013-03-29 20:07:00,
2013-03-29 10:13:00,63.7,59.0,30.09,NW,317,3.0,5.0,85,0.00,,,0.00,229.0,meteohub,2013-03-29 20:13:00,
2013-03-29 10:27:00,63.7,59.0,30.09,WSW,243,1.0,5.0,85,0.00,,,0.00,768.0,meteohub,2013-03-29 20:27:00,
2013-03-29 10:33:00,63.9,59.2,30.08,SW,234,0.0,4.0,85,0.00,,,0.00,367.0,meteohub,2013-03-29 20:33:00,
2013-03-29 10:38:00,63.9,59.0,30.08,West,259,1.0,4.0,84,0.00,,,0.00,367.0,meteohub,2013-03-29 20:38:00,
2013-03-29 10:39:00,64.0,59.2,30.08,WSW,255,3.0,4.0,84,0.00,,,0.00,320.0,meteohub,2013-03-29 20:39:00,
2013-03-29 10:52:00,64.6,59.4,30.08,West,269,0.0,8.0,83,0.00,,,0.00,246.0,meteohub,2013-03-29 20:52:00,
2013-03-29 10:56:00,64.0,59.2,30.08,WSW,257,4.0,6.0,84,0.00,,,0.00,304.0,meteohub,2013-03-29 20:56:00,
2013-03-29 10:57:00,64.0,59.4,30.08,West,266,1.0,6.0,85,0.00,,,0.00,304.0,meteohub,2013-03-29 20:57:00,
2013-03-29 11:02:00,63.7,59.0,30.08,WNW,296,0.0,6.0,85,0.00,,,0.00,218.0,meteohub,2013-03-29 21:02:00,
2013-03-29 11:12:00,63.7,59.7,30.07,NW,311,2.0,9.0,87,0.00,,,0.00,181.0,meteohub,2013-03-29 21:12:00,
2013-03-29 11:17:00,63.3,59.7,30.07,WSW,256,1.0,9.0,88,0.00,,,0.00,181.0,meteohub,2013-03-29 21:17:00,
2013-03-29 11:18:00,63.3,59.7,30.07,WSW,257,0.0,9.0,88,0.00,,,0.00,188.0,meteohub,2013-03-29 21:18:00,
2013-03-29 11:27:00,63.3,59.4,30.07,WNW,293,1.0,5.0,87,0.00,,,0.00,323.0,meteohub,2013-03-29 21:27:00,
2013-03-29 11:32:00,63.7,60.1,30.07,SW,230,0.0,5.0,88,0.00,,,0.00,237.0,meteohub,2013-03-29 21:32:00,
2013-03-29 11:37:00,63.7,60.1,30.07,WSW,251,2.0,5.0,88,0.00,,,0.00,258.0,meteohub,2013-03-29 21:37:00,
2013-03-29 11:42:00,63.7,59.7,30.06,SW,226,0.0,4.0,87,0.00,,,0.00,223.0,meteohub,2013-03-29 21:42:00,
2013-03-29 11:43:00,63.5,59.9,30.06,WSW,258,1.0,4.0,88,0.00,,,0.00,218.0,meteohub,2013-03-29 21:43:00,
2013-03-29 11:47:00,63.3,60.1,30.06,West,265,0.0,6.0,89,0.00,,,0.00,297.0,meteohub,2013-03-29 21:47:00,
2013-03-29 11:52:00,63.3,59.7,30.06,South,184,1.0,6.0,88,0.00,,,0.00,200.0,meteohub,2013-03-29 21:52:00,
2013-03-29 11:58:00,63.0,59.4,30.06,SW,227,1.0,6.0,88,0.00,,,0.00,220.0,meteohub,2013-03-29 21:58:00,
2013-03-29 12:04:00,62.8,59.2,30.06,WSW,237,0.0,5.0,88,0.00,,,0.00,218.0,meteohub,2013-03-29 22:04:00,
2013-03-29 12:12:00,63.0,59.7,30.06,WSW,246,0.0,4.0,89,0.00,,,0.00,320.0,meteohub,2013-03-29 22:12:00,
2013-03-29 12:17:00,63.1,59.5,30.05,North,0,2.0,4.0,88,0.00,,,0.00,373.0,meteohub,2013-03-29 22:17:00,
2013-03-29 12:22:00,63.3,59.0,30.05,WSW,250,1.0,5.0,86,0.00,,,0.00,415.0,meteohub,2013-03-29 22:22:00,
2013-03-29 12:27:00,63.7,59.0,30.05,SW,232,0.0,5.0,85,0.00,,,0.00,515.0,meteohub,2013-03-29 22:27:00,
2013-03-29 12:32:00,64.4,59.5,30.05,SSW,198,2.0,5.0,84,0.00,,,0.00,1385.0,meteohub,2013-03-29 22:32:00,
2013-03-29 12:42:00,65.8,59.2,30.04,South,191,3.0,7.0,79,0.00,,,0.00,1292.0,meteohub,2013-03-29 22:42:00,
2013-03-29 12:47:00,66.7,60.8,30.04,West,277,2.0,7.0,81,0.00,,,0.00,1276.0,meteohub,2013-03-29 22:47:00,
2013-03-29 12:49:00,67.3,61.5,30.04,WSW,255,1.0,7.0,82,0.00,,,0.00,1278.0,meteohub,2013-03-29 22:49:00,
2013-03-29 12:57:00,67.8,60.3,30.03,SW,236,5.0,7.0,77,0.00,,,0.00,596.0,meteohub,2013-03-29 22:57:00,
2013-03-29 13:02:00,68.4,60.8,30.03,SW,214,5.0,7.0,77,0.00,,,0.00,591.0,meteohub,2013-03-29 23:02:00,
2013-03-29 13:07:00,68.2,61.0,30.03,WNW,302,4.0,7.0,78,0.00,,,0.00,610.0,meteohub,2013-03-29 23:07:00,
2013-03-29 13:12:00,67.3,61.2,30.03,WNW,299,4.0,7.0,81,0.00,,,0.00,355.0,meteohub,2013-03-29 23:12:00,
2013-03-29 13:17:00,65.8,60.8,30.03,SW,235,1.0,7.0,84,0.00,,,0.00,316.0,meteohub,2013-03-29 23:17:00,
2013-03-29 13:22:00,65.3,61.0,30.03,SSW,201,7.0,7.0,86,0.00,,,0.00,260.0,meteohub,2013-03-29 23:22:00,
2013-03-29 13:27:00,64.8,60.8,30.03,SW,228,0.0,7.0,87,0.00,,,0.00,195.0,meteohub,2013-03-29 23:27:00,
2013-03-29 13:32:00,64.0,60.8,30.03,SSW,211,0.0,7.0,89,0.00,,,0.00,171.0,meteohub,2013-03-29 23:32:00,
2013-03-29 13:33:00,64.0,60.8,30.02,WSW,240,0.0,7.0,89,0.00,,,0.00,169.0,meteohub,2013-03-29 23:33:00,
2013-03-29 13:42:00,63.3,61.0,30.02,SSE,155,0.0,7.0,92,0.00,,,0.00,121.0,meteohub,2013-03-29 23:42:00,
2013-03-29 13:47:00,63.0,61.2,30.02,SW,234,2.0,5.0,94,0.00,,,0.00,107.0,meteohub,2013-03-29 23:47:00,
2013-03-29 13:50:00,62.6,60.8,30.02,SW,229,1.0,4.0,94,0.00,,,0.00,76.0,meteohub,2013-03-29 23:50:00,
2013-03-29 13:57:00,62.1,60.3,30.02,WSW,257,3.0,6.0,94,0.01,,,0.01,74.0,meteohub,2013-03-29 23:57:00,
2013-03-29 14:02:00,61.3,59.9,30.02,SW,235,3.0,6.0,95,0.01,,,0.01,107.0,meteohub,2013-03-30 00:02:00,
2013-03-29 14:07:00,61.2,60.1,30.01,WSW,239,1.0,6.0,96,0.03,,,0.02,98.0,meteohub,2013-03-30 00:07:00,
2013-03-29 14:12:00,61.2,60.1,30.01,WSW,245,2.0,4.0,96,0.07,,,0.04,128.0,meteohub,2013-03-30 00:12:00,
2013-03-29 14:17:00,61.0,59.9,30.01,West,277,0.0,4.0,96,0.07,,,0.06,155.0,meteohub,2013-03-30 00:17:00,
2013-03-29 14:27:00,61.0,60.1,30.01,WSW,254,0.0,4.0,97,0.08,,,0.07,109.0,meteohub,2013-03-30 00:27:00,
2013-03-29 14:32:00,61.0,60.1,30.01,WSW,242,1.0,4.0,97,0.09,,,0.08,121.0,meteohub,2013-03-30 00:32:00,
2013-03-29 14:34:00,60.8,59.9,30.01,WSW,242,0.0,4.0,97,0.09,,,0.08,125.0,meteohub,2013-03-30 00:34:00,
2013-03-29 14:42:00,60.8,60.3,30.01,West,260,0.0,4.0,98,0.09,,,0.08,118.0,meteohub,2013-03-30 00:42:00,
2013-03-29 14:49:00,60.4,59.5,30.01,WSW,258,0.0,3.0,97,0.09,,,0.08,127.0,meteohub,2013-03-30 00:49:00,
2013-03-29 14:54:00,60.4,59.5,30.01,WSW,258,0.0,2.0,97,0.15,,,0.14,118.0,meteohub,2013-03-30 00:54:00,
2013-03-29 14:59:00,60.4,59.5,30.01,NW,313,0.0,2.0,97,0.16,,,0.16,102.0,meteohub,2013-03-30 00:59:00,
2013-03-29 15:01:00,60.4,59.5,30.01,West,272,0.0,3.0,97,0.22,,,0.22,81.0,meteohub,2013-03-30 01:01:00,
2013-03-29 15:07:00,60.3,59.4,30.01,West,271,0.0,3.0,97,0.26,,,0.29,107.0,meteohub,2013-03-30 01:07:00,
2013-03-29 15:16:00,60.3,59.7,30.01,West,280,1.0,3.0,98,0.27,,,0.34,63.0,meteohub,2013-03-30 01:16:00,
2013-03-29 15:20:00,60.3,59.7,30.01,North,0,1.0,3.0,98,0.27,,,0.37,72.0,meteohub,2013-03-30 01:20:00,
2013-03-29 15:22:00,60.3,59.7,30.02,WSW,247,1.0,5.0,98,0.30,,,0.37,76.0,meteohub,2013-03-30 01:22:00,
2013-03-29 15:27:00,60.3,59.7,30.01,WNW,288,0.0,5.0,98,0.32,,,0.39,91.0,meteohub,2013-03-30 01:27:00,
2013-03-29 15:32:00,60.1,59.5,30.01,WNW,289,1.0,5.0,98,0.42,,,0.50,90.0,meteohub,2013-03-30 01:32:00,
2013-03-29 15:37:00,59.9,59.4,30.01,WSW,248,0.0,5.0,98,0.54,,,0.62,79.0,meteohub,2013-03-30 01:37:00,
2013-03-29 15:41:00,59.7,59.2,30.02,WSW,250,0.0,3.0,98,0.62,,,0.70,107.0,meteohub,2013-03-30 01:41:00,
2013-03-29 15:47:00,59.7,59.2,30.02,West,261,0.0,7.0,98,0.76,,,0.85,104.0,meteohub,2013-03-30 01:47:00,
2013-03-29 15:56:00,59.5,59.0,30.02,WSW,251,2.0,4.0,98,0.73,,,0.92,86.0,meteohub,2013-03-30 01:56:00,
2013-03-29 16:01:00,59.5,59.0,30.02,West,277,1.0,3.0,98,0.77,,,1.00,69.0,meteohub,2013-03-30 02:01:00,
2013-03-29 16:07:00,59.4,58.8,30.03,West,273,0.0,3.0,98,0.81,,,1.10,90.0,meteohub,2013-03-30 02:07:00,
2013-03-29 16:12:00,59.4,58.8,30.03,West,275,0.0,4.0,98,0.82,,,1.13,105.0,meteohub,2013-03-30 02:12:00,
2013-03-29 16:17:00,59.4,58.8,30.03,West,275,0.0,4.0,98,0.82,,,1.17,86.0,meteohub,2013-03-30 02:17:00,
2013-03-29 16:22:00,59.4,58.8,30.03,West,274,0.0,3.0,98,0.85,,,1.22,113.0,meteohub,2013-03-30 02:22:00,
2013-03-29 16:25:00,59.4,58.8,30.03,West,275,0.0,2.0,98,0.81,,,1.24,90.0,meteohub,2013-03-30 02:25:00,
2013-03-29 16:27:00,59.4,58.8,30.03,West,274,0.0,2.0,98,0.81,,,1.24,86.0,meteohub,2013-03-30 02:27:00,
2013-03-29 16:32:00,59.2,58.6,30.03,West,275,0.0,2.0,98,0.75,,,1.29,102.0,meteohub,2013-03-30 02:32:00,
2013-03-29 16:37:00,59.4,58.8,30.03,West,266,0.0,2.0,98,0.69,,,1.32,104.0,meteohub,2013-03-30 02:37:00,
2013-03-29 16:42:00,59.4,58.8,30.03,North,0,0.0,1.0,98,0.55,,,1.34,88.0,meteohub,2013-03-30 02:42:00,
2013-03-29 16:45:00,59.4,59.0,30.04,WNW,282,2.0,2.0,99,0.55,,,1.37,79.0,meteohub,2013-03-30 02:45:00,
2013-03-29 16:52:00,59.4,58.8,30.03,West,265,0.0,3.0,98,0.49,,,1.39,97.0,meteohub,2013-03-30 02:52:00,
2013-03-29 16:57:00,59.2,58.6,30.03,West,281,0.0,3.0,98,0.46,,,1.42,93.0,meteohub,2013-03-30 02:57:00,
2013-03-29 17:02:00,59.2,58.6,30.03,West,281,0.0,3.0,98,0.42,,,1.45,83.0,meteohub,2013-03-30 03:02:00,
2013-03-29 17:07:00,59.2,58.8,30.04,North,0,0.0,2.0,99,0.36,,,1.46,56.0,meteohub,2013-03-30 03:07:00,
2013-03-29 17:08:00,59.2,58.8,30.04,West,281,0.0,2.0,99,0.36,,,1.46,54.0,meteohub,2013-03-30 03:08:00,
2013-03-29 17:17:00,59.2,58.8,30.04,North,0,0.0,2.0,99,0.31,,,1.50,37.0,meteohub,2013-03-30 03:17:00,
2013-03-29 17:23:00,59.2,58.8,30.04,West,280,0.0,2.0,99,0.31,,,1.52,46.0,meteohub,2013-03-30 03:23:00,
2013-03-29 17:28:00,59.0,58.5,30.04,West,280,0.0,2.0,98,0.29,,,1.55,40.0,meteohub,2013-03-30 03:28:00,
2013-03-29 17:29:00,59.0,58.5,30.05,West,279,0.0,2.0,98,0.29,,,1.55,39.0,meteohub,2013-03-30 03:29:00,
2013-03-29 17:37:00,58.8,58.3,30.05,North,0,0.0,2.0,98,0.28,,,1.61,35.0,meteohub,2013-03-30 03:37:00,
2013-03-29 17:42:00,58.8,58.3,30.05,NNW,332,0.0,3.0,98,0.29,,,1.64,39.0,meteohub,2013-03-30 03:42:00,
2013-03-29 17:47:00,58.8,58.3,30.05,North,0,0.0,3.0,98,0.31,,,1.68,39.0,meteohub,2013-03-30 03:47:00,
2013-03-29 17:51:00,58.8,58.3,30.05,NW,325,0.0,3.0,98,0.29,,,1.69,42.0,meteohub,2013-03-30 03:51:00,
2013-03-29 17:57:00,58.6,58.3,30.05,NW,326,0.0,3.0,99,0.27,,,1.70,39.0,meteohub,2013-03-30 03:57:00,
2013-03-29 18:02:00,58.6,58.3,30.05,NNW,333,0.0,3.0,99,0.26,,,1.72,30.0,meteohub,2013-03-30 04:02:00,
2013-03-29 18:06:00,58.6,58.1,30.05,NNW,333,0.0,3.0,98,0.26,,,1.73,23.0,meteohub,2013-03-30 04:06:00,
2013-03-29 18:07:00,58.6,58.1,30.05,NNW,333,0.0,3.0,98,0.26,,,1.73,21.0,meteohub,2013-03-30 04:07:00,
2013-03-29 18:12:00,58.6,58.1,30.06,North,0,0.0,2.0,98,0.26,,,1.75,11.0,meteohub,2013-03-30 04:12:00,
2013-03-29 18:14:00,58.6,58.1,30.06,North,0,0.0,2.0,98,0.26,,,1.75,11.0,meteohub,2013-03-30 04:14:00,
2013-03-29 18:17:00,58.6,58.3,30.06,North,0,0.0,1.0,99,0.25,,,1.76,11.0,meteohub,2013-03-30 04:17:00,
2013-03-29 18:22:00,58.6,58.3,30.06,North,0,0.0,2.0,99,0.23,,,1.77,9.0,meteohub,2013-03-30 04:22:00,
2013-03-29 18:29:00,58.5,58.1,30.06,North,0,0.0,2.0,99,0.22,,,1.78,9.0,meteohub,2013-03-30 04:29:00,
2013-03-29 18:34:00,58.5,57.9,30.06,NNW,333,0.0,2.0,98,0.19,,,1.79,7.0,meteohub,2013-03-30 04:34:00,
2013-03-29 18:47:00,58.5,57.9,30.07,North,0,0.0,2.0,98,0.12,,,1.81,0.0,meteohub,2013-03-30 04:47:00,
2013-03-29 18:52:00,58.3,57.9,30.07,NNW,332,0.0,1.0,99,0.11,,,1.81,0.0,meteohub,2013-03-30 04:52:00,
2013-03-29 18:57:00,58.3,57.9,30.07,NNW,333,0.0,1.0,99,0.10,,,1.81,0.0,meteohub,2013-03-30 04:57:00,
2013-03-29 19:02:00,58.3,57.9,30.07,North,0,0.0,1.0,99,0.09,,,1.82,0.0,meteohub,2013-03-30 05:02:00,
2013-03-29 19:07:00,58.3,57.9,30.07,North,0,0.0,1.0,99,0.08,,,1.82,0.0,meteohub,2013-03-30 05:07:00,
2013-03-29 19:12:00,58.3,57.9,30.07,NNW,333,0.0,0.0,99,0.07,,,1.82,0.0,meteohub,2013-03-30 05:12:00,
2013-03-29 19:17:00,58.3,57.9,30.08,NNW,333,0.0,1.0,99,0.06,,,1.82,0.0,meteohub,2013-03-30 05:17:00,
2013-03-29 19:18:00,58.3,57.9,30.08,NNW,333,0.0,1.0,99,0.06,,,1.82,0.0,meteohub,2013-03-30 05:18:00,
2013-03-29 19:27:00,58.3,57.9,30.09,NNW,342,0.0,1.0,99,0.04,,,1.82,0.0,meteohub,2013-03-30 05:27:00,
2013-03-29 19:32:00,58.3,57.9,30.09,North,0,0.0,1.0,99,0.03,,,1.82,0.0,meteohub,2013-03-30 05:32:00,
2013-03-29 19:37:00,58.3,57.9,30.09,NNW,341,0.0,1.0,99,0.02,,,1.82,0.0,meteohub,2013-03-30 05:37:00,
2013-03-29 19:42:00,58.1,57.7,30.09,NNW,342,0.0,1.0,99,0.01,,,1.82,0.0,meteohub,2013-03-30 05:42:00,
2013-03-29 19:45:00,58.3,57.9,30.09,NNW,342,0.0,1.0,99,0.01,,,1.82,0.0,meteohub,2013-03-30 05:45:00,
2013-03-29 19:52:00,57.9,57.6,30.09,NNW,342,0.0,0.0,99,0.01,,,1.82,0.0,meteohub,2013-03-30 05:52:00,
2013-03-29 19:57:00,57.9,57.6,30.09,NNW,341,0.0,0.0,99,0.01,,,1.82,0.0,meteohub,2013-03-30 05:57:00,
2013-03-29 20:02:00,57.7,57.2,30.09,NNW,341,0.0,0.0,98,0.00,,,1.82,0.0,meteohub,2013-03-30 06:02:00,
2013-03-29 20:07:00,57.6,57.0,30.09,NNW,342,0.0,0.0,98,0.00,,,1.82,0.0,meteohub,2013-03-30 06:07:00,
2013-03-29 20:17:00,57.2,56.7,30.10,NNW,341,0.0,1.0,98,0.00,,,1.82,0.0,meteohub,2013-03-30 06:17:00,
2013-03-29 20:22:00,57.0,56.5,30.10,North,0,0.0,1.0,98,0.00,,,1.82,0.0,meteohub,2013-03-30 06:22:00,
2013-03-29 20:23:00,57.0,56.5,30.10,NNW,342,0.0,1.0,98,0.00,,,1.82,0.0,meteohub,2013-03-30 06:23:00,
2013-03-29 20:37:00,56.7,56.1,30.11,NNW,342,0.0,0.0,98,0.00,,,1.82,0.0,meteohub,2013-03-30 06:37:00,
2013-03-29 20:42:00,56.5,55.9,30.11,NNW,342,0.0,0.0,98,0.00,,,1.82,0.0,meteohub,2013-03-30 06:42:00,
2013-03-29 20:47:00,56.5,55.9,30.10,NNW,342,0.0,0.0,98,0.00,,,1.82,0.0,meteohub,2013-03-30 06:47:00,
2013-03-29 20:48:00,56.5,55.9,30.10,NNW,342,0.0,0.0,98,0.00,,,1.82,0.0,meteohub,2013-03-30 06:48:00,
2013-03-29 20:57:00,56.3,55.9,30.11,NNW,341,0.0,1.0,99,0.00,,,1.82,0.0,meteohub,2013-03-30 06:57:00,
2013-03-29 21:03:00,55.9,55.4,30.10,ENE,71,0.0,1.0,98,0.00,,,1.82,0.0,meteohub,2013-03-30 07:03:00,
2013-03-29 21:12:00,55.6,55.0,30.11,ENE,78,0.0,3.0,98,0.00,,,1.82,0.0,meteohub,2013-03-30 07:12:00,
2013-03-29 21:13:00,55.4,54.9,30.11,ENE,76,0.0,3.0,98,0.00,,,1.82,0.0,meteohub,2013-03-30 07:13:00,
2013-03-29 21:17:00,55.2,54.7,30.11,East,81,1.0,3.0,98,0.00,,,1.82,0.0,meteohub,2013-03-30 07:17:00,
2013-03-29 21:27:00,54.7,54.1,30.11,East,92,1.0,3.0,98,0.00,,,1.82,0.0,meteohub,2013-03-30 07:27:00,
2013-03-29 21:30:00,54.3,53.8,30.11,East,91,1.0,3.0,98,0.00,,,1.82,0.0,meteohub,2013-03-30 07:30:00,
2013-03-29 21:32:00,54.3,53.8,30.11,East,92,1.0,3.0,98,0.00,,,1.82,0.0,meteohub,2013-03-30 07:32:00,
2013-03-29 21:37:00,54.1,53.6,30.11,East,90,0.0,3.0,98,0.00,,,1.82,0.0,meteohub,2013-03-30 07:37:00,
2013-03-29 21:45:00,54.0,53.4,30.11,ENE,75,2.0,2.0,98,0.00,,,1.82,0.0,meteohub,2013-03-30 07:45:00,
2013-03-29 21:50:00,53.8,53.2,30.11,East,91,0.0,5.0,98,0.00,,,1.82,0.0,meteohub,2013-03-30 07:50:00,
2013-03-29 21:57:00,53.4,52.9,30.11,East,93,2.0,5.0,98,0.00,,,1.82,0.0,meteohub,2013-03-30 07:57:00,
2013-03-29 22:02:00,53.4,52.9,30.11,East,91,1.0,3.0,98,0.00,,,1.82,0.0,meteohub,2013-03-30 08:02:00,
2013-03-29 22:07:00,53.4,52.9,30.11,East,92,1.0,3.0,98,0.00,,,1.82,0.0,meteohub,2013-03-30 08:07:00,
2013-03-29 22:12:00,53.4,52.9,30.11,East,90,1.0,3.0,98,0.00,,,1.82,0.0,meteohub,2013-03-30 08:12:00,
2013-03-29 22:13:00,53.4,52.9,30.11,East,91,1.0,3.0,98,0.00,,,1.82,0.0,meteohub,2013-03-30 08:13:00,
2013-03-29 22:22:00,53.6,53.2,30.11,East,89,3.0,3.0,99,0.00,,,1.82,0.0,meteohub,2013-03-30 08:22:00,
2013-03-29 22:28:00,53.6,53.2,30.12,East,89,0.0,5.0,99,0.00,,,1.82,0.0,meteohub,2013-03-30 08:28:00,
2013-03-29 22:33:00,53.6,53.1,30.12,East,90,2.0,5.0,98,0.00,,,1.82,0.0,meteohub,2013-03-30 08:33:00,
2013-03-29 22:37:00,53.8,53.4,30.12,East,89,2.0,5.0,99,0.00,,,1.82,0.0,meteohub,2013-03-30 08:37:00,
2013-03-29 22:42:00,54.0,53.6,30.11,East,89,2.0,3.0,99,0.00,,,1.82,0.0,meteohub,2013-03-30 08:42:00,
2013-03-29 22:52:00,54.0,53.6,30.11,East,88,1.0,3.0,99,0.00,,,1.82,0.0,meteohub,2013-03-30 08:52:00,
2013-03-29 22:56:00,54.0,53.6,30.11,East,88,1.0,3.0,99,0.00,,,1.82,0.0,meteohub,2013-03-30 08:56:00,
2013-03-29 22:57:00,54.0,53.6,30.11,East,89,1.0,3.0,99,0.00,,,1.82,0.0,meteohub,2013-03-30 08:57:00,
2013-03-29 23:02:00,54.1,53.8,30.11,East,89,0.0,3.0,99,0.00,,,1.82,0.0,meteohub,2013-03-30 09:02:00,
2013-03-29 23:07:00,54.1,53.8,30.11,East,89,2.0,3.0,99,0.00,,,1.82,0.0,meteohub,2013-03-30 09:07:00,
2013-03-29 23:12:00,54.1,53.8,30.11,East,88,0.0,3.0,99,0.00,,,1.82,0.0,meteohub,2013-03-30 09:12:00,
2013-03-29 23:17:00,54.1,53.8,30.11,East,89,0.0,3.0,99,0.00,,,1.82,0.0,meteohub,2013-03-30 09:17:00,
2013-03-29 23:25:00,54.1,53.8,30.11,East,90,1.0,3.0,99,0.00,,,1.82,0.0,meteohub,2013-03-30 09:25:00,
2013-03-29 23:30:00,54.0,53.6,30.11,East,90,1.0,3.0,99,0.00,,,1.82,0.0,meteohub,2013-03-30 09:30:00,
2013-03-29 23:34:00,54.0,53.6,30.11,East,91,2.0,3.0,99,0.00,,,1.82,0.0,meteohub,2013-03-30 09:34:00,
2013-03-29 23:39:00,53.8,53.4,30.11,East,89,1.0,3.0,99,0.00,,,1.82,0.0,meteohub,2013-03-30 09:39:00,
2013-03-29 23:47:00,53.4,52.9,30.11,East,89,1.0,2.0,98,0.00,,,1.82,0.0,meteohub,2013-03-30 09:47:00,
2013-03-29 23:48:00,53.4,52.9,30.10,East,88,1.0,2.0,98,0.00,,,1.82,0.0,meteohub,2013-03-30 09:48:00,
2013-03-29 23:52:00,53.4,53.1,30.10,East,89,1.0,3.0,99,0.00,,,1.82,0.0,meteohub,2013-03-30 09:52:00,